EW6230 Weather Reports


time (UTC)temp
C
wind
direction
speed
KPH
gust
KPH
rain 1hr
cm
rain 24hr
cm
rain mn
cm
humidity
%
barometer
mb
20260904170007 14 82 0.0 0.0 0.00 0.03 0.00 21 1010.2
20260904164600 13 81 0.0 0.0 0.00 0.03 0.00 12 1010.3
20260904164501 13 81 0.0 0.0 0.00 0.03 0.00 10 1010.2
20260904163056 13 81 0.0 0.0 0.00 0.03 0.00 1 1010.3
20260904161600 13 81 0.0 0.0 0.00 0.03 0.00 1 1010.0
20260904160057 12 81 0.0 0.0 0.00 0.03 0.00 1 1009.9
20260904154543 11 80 0.0 0.0 0.00 0.03 0.00 1 1009.9
20260904153039 11 80 0.0 0.0 0.00 0.03 0.00 1 1009.9
20260904151539 11 79 0.0 0.0 0.00 0.03 0.00 1 1009.8
20260904150035 10 79 0.0 0.0 0.00 0.03 0.00 1 1009.7
20260904144525 10 79 0.0 0.0 0.00 0.03 0.00 1 1009.8
20260904143022 -17 0.0 0.0 0.00 0.03 0.00 1009.6
20260904141517 -17 0.0 0.0 0.00 0.03 0.00 1009.4
20260904140013 -17 0.0 0.0 0.00 0.03 0.00 1009.1
20260904134508 -17 0.0 0.0 0.00 0.03 0.00 1008.8
20260904133005 -17 0.0 0.0 0.00 0.03 0.00 1008.6
20260904131603 -17 0.0 0.0 0.00 0.03 0.00 1008.6
20260904130058 -17 0.0 0.0 0.00 0.03 0.00 1008.4
20260904124602 -17 0.0 0.0 0.00 0.03 0.00 1008.3
20260904123047 -17 0.0 0.0 0.00 0.03 0.00 1008.3
20260904121542 -17 0.0 0.0 0.00 0.03 0.00 1008.2
20260904120037 -17 0.0 0.0 0.00 0.03 0.00 1008.3
20260904114533 8 79 0.0 0.0 0.00 0.03 0.00 1 1008.1
20260904113029 9 79 0.0 0.0 0.00 0.03 0.00 1 1007.9
20260904111524 9 79 0.0 0.0 0.00 0.03 0.00 1 1007.8
20260904110020 9 79 0.0 0.0 0.00 0.03 0.00 1 1007.7
20260904104517 9 79 0.0 0.0 0.00 0.03 0.00 1 1007.7
20260904103012 9 79 0.0 0.0 0.00 0.03 0.00 1 1007.6
20260904101508 9 79 0.0 0.0 0.00 0.03 0.00 1 1007.5
20260904100121 9 79 0.0 0.0 0.00 0.03 0.00 1 1007.5
20260904094554 9 79 0.0 0.0 0.00 0.03 0.00 1 1007.5
20260904093054 9 79 0.0 0.0 0.00 0.03 0.00 1 1007.6
20260904091553 9 79 0.0 0.0 0.00 0.03 0.00 1 1007.5
20260904090041 9 79 0.0 0.0 0.00 0.03 0.00 1 1007.6
20260904084537 9 79 0.0 0.0 0.00 0.03 0.00 1 1007.5
20260904083036 10 79 0.0 0.0 0.00 0.03 0.00 1 1007.6
20260904081528 10 79 0.0 0.0 0.00 0.03 0.00 1 1007.7
20260904080023 10 79 0.0 0.0 0.00 0.03 0.00 1 1007.8
20260904074530 10 79 0.0 0.0 0.00 0.03 0.00 1 1007.8
20260904073019 10 79 0.0 0.0 0.00 0.03 0.00 1 1007.7
20260904071511 10 79 0.0 0.0 0.00 0.03 0.00 1 1007.6
20260904070008 10 79 0.0 0.0 0.00 0.03 0.00 1 1007.6
20260904064501 10 79 0.0 0.0 0.00 0.03 0.03 1 1007.5
20260904063059 10 79 0.0 0.0 0.00 0.03 0.03 1 1007.5
20260904061553 10 79 0.0 0.0 0.00 0.03 0.03 1 1007.4
20260904060049 11 79 0.0 0.0 0.00 0.03 0.03 1 1007.2
20260904054546 11 79 0.0 0.0 0.00 0.03 0.03 1 1007.2
20260904053050 11 79 0.0 0.0 0.00 0.03 0.03 1 1007.1
20260904051536 11 79 0.0 0.0 0.00 0.03 0.03 1 1007.3
20260904050033 11 79 0.0 0.0 0.00 0.03 0.03 1 1007.2
20260904044527 11 79 0.0 0.0 0.00 0.03 0.03 1 1007.3
20260904043022 11 79 0.0 0.0 0.00 0.03 0.03 1 1007.2
20260904041524 12 79 0.0 0.0 0.00 0.03 0.03 1 1007.3
20260904040013 12 79 0.0 0.0 0.00 0.03 0.03 1 1007.3
20260904034508 12 79 0.0 0.0 0.00 0.03 0.03 1 1007.2
20260904033006 12 79 0.0 0.0 0.00 0.03 0.03 1 1007.0
20260904031613 12 79 0.0 0.0 0.00 0.03 0.03 1 1006.9
20260904030055 12 80 0.0 0.0 0.00 0.03 0.03 1 1006.8
20260904024551 13 80 0.0 0.0 0.00 0.03 0.03 2 1006.6
20260904023048 13 80 0.0 0.0 0.00 0.03 0.03 1 1006.6
20260904021550 13 80 0.0 0.0 0.00 0.03 0.03 8 1006.5
20260904020042 13 80 0.0 0.0 0.00 0.03 0.03 14 1006.4
20260904014534 13 80 0.0 0.0 0.00 0.03 0.03 19 1006.2
20260904013030 13 80 0.0 1.6 0.00 0.03 0.03 22 1006.2
20260904011525 13 226 0.0 3.2 0.00 0.03 0.03 13 1006.2
20260904010022 13 205 0.0 0.0 0.00 0.03 0.03 14 1006.1
20260904004517 14 205 0.0 0.0 0.00 0.03 0.03 20 1006.0
20260904003014 15 210 0.0 0.0 0.00 0.03 0.03 31 1005.9
20260904001508 16 210 0.0 1.6 0.00 0.03 0.03 46 1005.8
20260904000003 17 210 0.0 1.6 0.03 0.03 0.03 58 1005.7
20260903234600 17 210 0.0 0.0 0.03 0.03 0.03 48 1005.7
20260903233055 16 210 0.0 3.2 0.03 0.03 0.03 49 1005.8
20260903231556 16 279 0.0 0.0 0.03 0.03 0.03 1 1005.9
20260903230050 15 279 0.0 0.0 0.00 0.00 0.00 6 1006.1
20260903224546 15 279 0.0 0.0 0.00 0.00 0.00 3 1006.2
20260903223039 15 279 0.0 1.6 0.00 0.00 0.00 29 1006.2
20260903221546 15 274 0.0 0.0 0.00 0.00 0.00 29 1006.2
20260903220031 15 274 0.0 0.0 0.00 0.00 0.00 21 1006.1
20260903214526 15 274 0.0 0.0 0.00 0.00 0.00 22 1006.2
20260903213023 15 274 0.0 0.0 0.00 0.00 0.00 38 1006.2
20260903211517 16 274 0.0 0.0 0.00 0.00 0.00 48 1006.0
20260903210015 15 248 0.0 0.0 0.00 0.00 0.00 51 1005.9
20260903204508 15 96 0.0 1.6 0.00 0.00 0.00 49 1005.9
20260903203005 15 129 0.0 1.6 0.00 0.00 0.00 46 1005.7
20260903201600 15 129 0.0 1.6 0.00 0.00 0.00 52 1005.6
20260903200055 15 79 0.0 1.6 0.00 0.00 0.00 56 1005.6
20260903194551 16 314 0.0 1.6 0.00 0.00 0.00 57 1005.6
20260903193048 16 95 0.0 3.2 0.00 0.00 0.00 57 1005.5
20260903191542 17 262 0.0 1.6 0.00 0.00 0.00 59 1005.3
20260903190037 17 219 0.0 1.6 0.00 0.00 0.00 62 1005.3
20260903184533 17 319 0.0 1.6 0.00 0.00 0.00 59 1005.2
20260903183029 17 139 0.0 1.6 0.00 0.00 0.00 55 1005.1
20260903181524 16 321 0.0 1.6 0.00 0.00 0.00 45 1005.0
20260903180033 15 352 0.0 1.6 0.00 0.00 0.00 37 1004.7
20260903174515 15 359 0.0 1.6 0.00 0.00 0.00 44 1004.6
20260903173010 15 2 0.0 1.6 0.00 0.00 0.00 46 1004.4
20260903171505 16 227 0.0 6.4 0.00 0.00 0.00 46 1004.3